Gene Autry, OK

12:09 AM CDT on September 27, 2016 (GMT -0500)
Ardmore Municipal

Weather History for KADM - August, 2014

Change the Weather History Date:

Wednesday, August 13, 2014

  Actual Average Record
Temperature  
Mean Temperature 77 °F -  
Max Temperature 91 °F 92 °F 104 °F (2010)
Min Temperature 63 °F 70 °F 62 °F (2004)
Cooling Degree Days 12    
Growing Degree Days 27 (Base 50)    
Moisture  
Dew Point 63 °F    
Average Humidity 78    
Maximum Humidity 97    
Minimum Humidity 36    
Precipitation  
Precipitation 0.00 in - - ()
Sea Level Pressure  
Sea Level Pressure 30.08 in    
Wind  
Wind Speed 1 mph (ESE)    
Max Wind Speed 10 mph    
Max Gust Speed -    
Visibility 10 miles    
Events      
Averages and records for this station are not official NWS values.
T = Trace of Precipitation, MM = Missing Value Source: NWS Daily Summary

Daily Weather History Graph

Daily Weather History Graph

Search for Another Location

Airport or City:

Trip Planner

Search our weather history database for the weather conditions in past years. The results will help you decide how hot, cold, wet, or windy it might be!

Date:

Astronomy

Aug. 13, 2014 Rise Set
Actual Time 6:47 AM CDT 8:17 PM CDT
Civil Twilight 6:21 AM CDT 8:44 PM CDT
Nautical Twilight 5:49 AM CDT 9:16 PM CDT
Astronomical Twilight 5:15 AM CDT 9:49 PM CDT
Moon 10:16 PM CDT (8/13) 10:05 AM CDT (8/13)
Length of Visible Light 14h 23m
Length of Day
13h 29m
Waning Gibbous, 87% of the Moon is Illuminated
Aug 13
Waning Gibbous
Aug 17
Last Quarter
Aug 25
New
Sep 2
First Quarter
Sep 8
Full

Hourly Weather History & Observations

Time (CDT) Temp. Heat Index Dew Point Humidity Pressure Visibility Wind Dir Wind Speed Gust Speed Precip Events Conditions
12:15 AM 67.8 °F - 66.2 °F 95% 30.07 in 10.0 mi Calm Calm - N/A   Clear
12:35 AM 67.1 °F - 65.7 °F 95% 30.08 in 10.0 mi Calm Calm - N/A   Clear
12:55 AM 67.3 °F - 65.7 °F 95% 30.08 in 10.0 mi Calm Calm - N/A   Clear
1:15 AM 67.5 °F - 66.6 °F 97% 30.08 in 10.0 mi Calm Calm - N/A   Clear
1:35 AM 66.6 °F - 65.7 °F 97% 30.08 in 10.0 mi Calm Calm - N/A   Clear
1:55 AM 66.4 °F - 64.8 °F 95% 30.07 in 10.0 mi ENE 3.5 mph - N/A   Clear
2:15 AM 64.8 °F - 63.3 °F 95% 30.07 in 10.0 mi Calm Calm - N/A   Clear
2:35 AM 67.3 °F - 63.5 °F 88% 30.07 in 10.0 mi Calm Calm - N/A   Clear
2:55 AM 66.7 °F - 63.7 °F 90% 30.07 in 10.0 mi Calm Calm - N/A   Clear
3:15 AM 65.3 °F - 63.9 °F 95% 30.07 in 10.0 mi Calm Calm - N/A   Clear
3:35 AM 65.7 °F - 62.6 °F 90% 30.08 in 10.0 mi Calm Calm - N/A   Clear
3:55 AM 65.8 °F - 62.6 °F 89% 30.08 in 10.0 mi NE 3.5 mph - N/A   Clear
4:15 AM 63.7 °F - 62.1 °F 94% 30.08 in 10.0 mi Calm Calm - N/A   Clear
4:35 AM 63.5 °F - 62.6 °F 97% 30.08 in 10.0 mi Calm Calm - N/A   Clear
4:55 AM 66.0 °F - 62.6 °F 89% 30.09 in 10.0 mi Calm Calm - N/A   Mostly Cloudy
5:15 AM 66.0 °F - 63.5 °F 92% 30.09 in 10.0 mi Calm Calm - N/A   Overcast
5:35 AM 65.7 °F - 63.3 °F 92% 30.09 in 10.0 mi Calm Calm - N/A   Overcast
5:55 AM 65.5 °F - 63.9 °F 94% 30.09 in 10.0 mi Calm Calm - N/A   Mostly Cloudy
6:15 AM 65.7 °F - 63.5 °F 93% 30.10 in 10.0 mi Calm Calm - N/A   Scattered Clouds
6:35 AM 63.9 °F - 62.8 °F 96% 30.10 in 10.0 mi Calm Calm - N/A   Scattered Clouds
8:55 AM 73.4 °F - 64.4 °F 73% 30.14 in 10.0 mi Calm Calm - N/A   Clear
9:55 AM 78.8 °F - 62.6 °F 57% 30.14 in 10.0 mi SSE 5.8 mph - N/A   Clear
10:55 AM 82.4 °F 82.5 °F 59.0 °F 45% 30.14 in 10.0 mi SE 5.8 mph - N/A   Clear
11:55 AM 84.2 °F 83.8 °F 59.0 °F 42% 30.13 in 10.0 mi NE 3.5 mph - N/A   Clear
12:55 PM 86.0 °F 86.1 °F 60.8 °F 43% 30.11 in 10.0 mi South 4.6 mph - N/A   Clear
1:55 PM 87.8 °F 87.1 °F 59.0 °F 38% 30.10 in 10.0 mi Calm Calm - N/A   Clear
2:55 PM 91.4 °F 91.4 °F 60.8 °F 36% 30.08 in 10.0 mi ENE 10.4 mph - N/A   Clear
3:55 PM 89.6 °F 88.9 °F 59.0 °F 36% 30.05 in 10.0 mi East 8.1 mph - N/A   Clear
4:55 PM 89.6 °F 89.5 °F 60.8 °F 38% 30.04 in 10.0 mi South 5.8 mph - N/A   Clear
5:55 PM 89.6 °F 89.5 °F 60.8 °F 38% 30.03 in 10.0 mi East 6.9 mph - N/A   Clear
11:15 PM 72.0 °F - 66.0 °F 81% 30.05 in 10.0 mi Calm Calm - N/A   Clear
11:35 PM 70.7 °F - 66.2 °F 86% 30.05 in 10.0 mi Calm Calm - N/A   Clear
11:55 PM 69.8 °F - 67.1 °F 91% 30.05 in 10.0 mi Calm Calm - N/A   Clear